STARLINK-5182 (54189 NORAD) Tracking and Keplerian Element Data

This shows tracking and keplerian element data for the satellite.

Feedback or suggestion? Click here.




ElementValue
Catalog54189
NameSTARLINK-5182
Epoch Orbit407
Epoch Day325.25001157
Epoch Year2022
RAAN24.0978
Inclination53.2187
Eccentricity0.0003353
Argument of Perigee9.5121
Mean Anonmoly18.4955
Mean Motion15.73126661
Decay Rate0.00201681
L11 54189U 22141AJ 22325.25001157 .00201681 00000+0 14114-2 0 9992
L22 54189 53.2187 24.0978 0003353 9.5121 18.4955 15.73126661 4078



Live tracking and technical data element details for STARLINK-5182 (NORAD 54189). STARLINK-5182 can be tracked NOW for your location showing map with azimuth and elevation plus other details from your city location.







IsCatalogInMostPopularTable: catalog: 54189, numindb: 4
Update: records affected: 1



GetName: 54189 STARLINK-5182

Hit Count: updated at: Mon, 28 Nov 2022 21:56:22 GMT